Wind_Speed
36 37 37 36 36 36 37 37 38 39 39 39 39 39 39 39 39 40 40 40 40 40 40 40 40 41 42 42 42 42 42 42 42 42 43 44 46 46 46 46 47 47 48
36 36 36 36 37 37 37 37 37 38 37 38 38 38 38 39 39 39 40 41 40 40 40 40 40 40 41 41 41 42 42 42 42 42 43 44 45 46 46 45 46 47 47
35 35 35 35 36 36 36 37 37 37 37 37 38 38 38 38 39 39 39 40 40 39 40 40 40 40 41 40 41 42 42 42 43 42 42 43 44 45 46 45 45 45 46
35 35 35 35 35 36 36 36 36 36 37 37 37 36 37 37 37 38 38 38 39 39 39 40 40 41 41 41 41 42 42 42 42 43 42 43 43 44 45 45 45 45 45
35 35 35 36 36 36 36 35 35 35 35 36 35 35 35 35 36 37 38 38 38 39 39 40 41 41 41 41 42 42 42 42 42 42 42 41 42 43 43 43 43 43 43
35 35 36 36 36 36 36 37 36 36 35 35 35 35 35 35 36 37 37 37 38 38 39 39 40 41 41 41 41 42 42 41 41 40 40 40 41 41 41 41 41 42 42
34 34 35 35 36 36 37 37 36 36 35 34 34 34 35 35 35 36 36 37 37 37 37 37 37 38 38 39 39 39 40 40 40 40 40 39 39 40 40 41 41 41 41
33 33 33 34 35 35 35 34 34 34 34 33 34 33 33 34 35 35 35 35 36 36 36 36 35 35 35 36 36 37 37 38 37 38 38 38 38 39 39 40 41 41 41
32 32 32 33 33 34 34 34 34 34 34 34 33 33 33 32 32 32 33 33 33 33 33 33 33 33 32 32 33 34 34 34 34 34 35 36 36 36 37 39 39 40 39
33 33 33 33 33 32 33 34 34 34 33 33 32 31 30 30 30 30 29 30 30 30 30 30 31 30 31 31 31 31 31 32 32 33 33 34 34 34 35 36 37 37 37
31 31 32 32 32 31 31 31 31 31 31 30 30 29 28 27 27 27 27 27 27 27 28 28 28 28 29 29 29 29 29 30 31 31 31 32 33 33 33 34 35 35 35
27 28 28 29 29 29 29 29 29 28 28 28 27 26 26 25 25 25 25 25 25 25 25 26 26 26 27 27 28 27 27 28 29 29 30 31 31 31 31 32 32 32 32
26 26 26 26 27 27 27 27 27 26 26 25 25 24 23 24 24 24 24 24 24 24 24 24 24 25 26 27 27 26 26 27 28 28 28 29 29 29 29 30 30 30 30
26 25 25 26 26 25 24 24 24 24 23 23 23 23 22 22 23 23 23 23 23 23 23 24 24 24 24 24 25 26 26 26 26 26 26 27 27 27 28 28 28 28 28
26 26 25 25 24 23 23 22 21 21 21 22 22 22 22 21 21 21 22 22 23 23 24 24 24 23 23 23 23 24 24 24 23 23 24 25 24 24 24 24 25 25 25
25 25 25 24 23 22 21 20 19 19 20 20 21 21 21 21 21 21 21 22 22 22 22 22 22 22 21 21 21 21 21 21 21 21 22 21 21 21 22 22 22 21 21
25 24 24 23 22 21 20 19 18 18 19 19 19 19 19 20 20 20 20 20 20 21 21 20 20 20 20 20 19 19 19 19 20 20 20 20 20 20 20 21 20 20 19
24 23 23 22 21 20 19 19 19 19 18 18 17 17 18 18 18 19 19 19 19 19 19 19 18 19 19 19 19 18 18 18 19 19 18 18 18 19 19 19 19 19 18
22 22 22 21 21 20 20 20 19 19 18 17 17 17 17 17 17 17 17 18 18 18 18 18 18 18 18 19 18 18 17 17 17 17 17 17 18 18 18 18 17 17 16
21 21 21 21 20 19 19 19 18 18 18 17 17 16 16 16 16 16 16 17 17 17 18 18 17 17 17 17 17 17 17 16 16 16 16 16 16 16 16 16 15 14 14
21 21 20 19 18 18 18 17 17 17 16 16 15 15 15 15 15 15 15 15 16 16 17 17 17 17 16 16 16 15 15 15 15 15 15 15 15 15 15 14 13 13 13
20 19 18 18 17 17 17 17 16 15 15 14 14 14 14 14 14 14 14 14 14 15 15 15 15 16 15 15 15 15 14 14 14 13 13 13 14 14 13 13 12 12 12
18 17 16 16 15 15 15 15 14 14 13 13 13 13 13 13 13 13 13 13 13 14 14 14 14 14 14 14 15 14 14 13 13 13 13 13 13 13 12 12 12 12 11
17 16 15 15 14 14 13 13 13 13 12 12 12 12 12 12 12 12 12 13 13 13 13 13 13 13 13 13 13 13 13 13 13 13 12 12 12 12 12 12 12 11 11
16 15 14 14 13 12 12 12 12 12 12 12 11 11 11 11 11 12 11 11 12 12 13 13 13 13 13 13 13 13 13 13 12 12 12 11 11 11 11 11 11 11 11
15 15 14 13 12 11 11 11 11 11 11 10 10 10 10 10 10 10 11 11 11 12 12 12 12 12 12 12 11 11 12 12 12 12 11 11 11 11 11 11 11 11 11
Wind_Direction
275 276 276 276 276 277 278 277 277 276 275 274 273 272 269 267 266 266 266 266 265 264 263 263 263 262 261 261 261 262 262 262 261 261 262 262 262 261 262 262 262 263 263
276 276 277 277 277 277 278 278 278 277 276 276 275 274 271 268 267 267 266 265 264 263 263 263 263 263 262 261 261 262 262 262 262 263 263 263 262 261 262 263 263 263 263
277 277 277 277 277 277 277 278 279 278 278 277 277 274 271 268 266 265 264 263 262 262 263 263 264 263 262 261 261 262 263 263 263 263 264 264 263 261 262 264 265 265 265
276 277 277 277 277 278 278 279 280 279 279 278 277 274 271 269 267 266 264 262 261 262 262 263 264 263 262 261 262 263 263 263 263 263 264 265 263 262 263 263 265 265 265
277 277 278 278 278 278 279 280 280 281 280 279 277 274 271 268 267 266 265 264 262 262 262 263 264 263 263 262 262 262 263 264 264 264 264 264 264 263 263 264 265 265 266
278 278 278 278 278 278 279 279 279 280 281 280 277 275 272 269 268 267 265 264 263 262 263 263 263 262 263 263 263 262 263 263 264 264 263 264 264 262 262 264 266 266 267
280 280 279 278 278 278 279 278 278 278 279 280 278 275 272 269 268 267 266 264 263 264 264 264 264 264 263 263 263 263 263 263 263 263 263 264 264 262 262 264 266 267 268
283 283 282 280 279 278 278 277 277 278 279 279 278 276 273 269 267 267 266 265 264 264 264 264 264 264 263 263 263 263 263 262 263 263 263 264 264 264 263 265 267 269 270
285 285 283 282 281 279 278 277 276 277 278 278 277 275 273 270 268 267 266 265 264 263 263 263 263 263 263 262 263 262 261 261 261 262 262 264 265 266 266 266 267 269 271
285 285 284 283 282 281 279 277 276 277 277 277 276 275 273 270 268 267 266 264 263 262 262 262 263 263 262 262 263 263 262 262 262 262 263 264 265 268 269 268 268 269 270
286 286 286 285 284 283 280 278 277 277 277 276 274 272 270 269 267 266 264 263 262 262 261 262 262 263 263 263 264 264 263 263 262 263 264 264 265 268 270 271 271 270 271
289 289 289 288 286 284 281 280 278 277 276 275 273 270 268 267 266 265 264 263 261 261 261 261 262 262 263 264 265 265 265 265 264 264 265 266 267 268 270 271 271 271 271
292 292 293 293 290 286 283 281 279 277 275 273 270 269 267 266 266 265 265 262 261 260 259 259 260 263 264 265 265 265 265 266 266 266 267 267 268 268 269 270 271 271 272
293 294 295 296 295 291 286 283 280 276 273 271 270 268 267 266 266 264 263 261 261 259 259 259 261 264 265 267 266 266 266 267 268 267 267 267 267 269 270 271 271 271 272
293 293 294 294 294 292 289 286 281 277 274 273 270 268 267 265 265 265 263 261 260 259 258 259 262 263 265 267 267 266 267 267 267 268 269 268 268 269 270 271 272 273 273
293 294 293 292 292 291 291 288 283 279 276 275 273 270 268 265 264 264 264 263 260 257 257 258 261 261 264 267 267 267 268 268 269 269 269 268 268 269 270 272 273 274 274
295 295 294 292 291 289 288 287 284 282 280 279 276 273 270 268 265 263 264 263 260 257 257 258 261 261 262 266 266 266 268 269 269 269 268 268 269 271 273 273 273 276 277
296 295 293 291 289 287 286 285 284 283 281 280 278 273 271 269 265 263 263 263 260 257 256 257 258 259 261 264 265 267 269 269 267 267 267 268 269 271 274 275 274 276 277
297 296 294 291 288 285 285 285 283 282 280 278 275 274 271 268 267 264 262 261 258 256 255 257 258 260 263 265 266 268 269 269 267 265 266 266 266 268 271 274 275 276 276
298 297 296 293 288 286 285 283 282 281 278 276 273 271 269 267 267 266 262 260 257 256 257 259 259 260 264 264 265 266 267 268 268 267 266 265 265 268 270 272 273 272 273
300 298 297 293 288 286 284 283 283 282 279 275 271 268 267 267 266 265 262 259 257 258 259 260 260 261 264 264 265 266 266 267 267 265 264 263 264 266 267 268 268 269 272
303 300 297 293 289 287 285 283 283 281 278 275 269 266 268 268 265 262 259 258 257 257 258 259 261 261 263 262 263 266 267 266 264 263 263 265 264 265 264 263 264 271 274
305 303 299 294 290 288 285 282 281 280 277 273 269 267 268 267 264 261 259 259 258 256 256 258 261 261 263 262 263 264 266 264 263 263 263 263 262 261 262 263 266 270 271
307 305 301 296 292 289 286 282 279 278 276 272 269 267 267 264 261 259 259 257 256 255 256 259 261 262 263 262 262 263 263 262 261 261 263 263 263 264 263 264 265 268 271
310 308 305 300 294 291 288 284 279 277 274 271 267 266 267 264 261 258 258 257 256 256 257 259 262 262 260 261 261 260 258 257 259 260 261 262 262 264 263 262 263 266 269
313 310 308 305 299 295 292 288 283 278 274 271 267 265 264 264 261 259 257 255 255 256 257 258 259 259 257 257 256 256 256 254 255 255 257 261 263 264 264 264 265 267 271
Height
5593 5592 5592 5591 5590 5589 5588 5587 5586 5585 5584 5583 5583 5583 5583 5584 5585 5585 5587 5588 5589 5591 5592 5594 5595 5596 5598 5600 5601 5603 5605 5607 5609 5611 5612 5614 5615 5618 5620 5622 5623 5625 5626
5584 5583 5582 5581 5580 5579 5578 5577 5576 5575 5574 5574 5573 5573 5573 5574 5574 5575 5576 5577 5579 5580 5581 5583 5584 5586 5587 5589 5590 5592 5594 5596 5598 5600 5601 5602 5604 5606 5608 5610 5611 5612 5613
5575 5574 5573 5572 5571 5570 5569 5568 5567 5565 5564 5564 5563 5563 5563 5563 5563 5564 5565 5567 5568 5569 5571 5572 5574 5575 5577 5578 5580 5581 5583 5585 5586 5588 5590 5591 5592 5594 5596 5597 5598 5600 5601
5565 5564 5563 5562 5561 5560 5559 5558 5557 5555 5554 5554 5553 5552 5552 5552 5553 5554 5555 5556 5557 5559 5560 5562 5563 5564 5566 5567 5569 5570 5572 5573 5575 5577 5578 5580 5581 5582 5584 5586 5587 5588 5589
5556 5555 5554 5552 5551 5550 5549 5548 5547 5546 5545 5544 5543 5542 5542 5542 5543 5543 5544 5545 5546 5548 5549 5550 5552 5553 5554 5556 5558 5559 5560 5562 5563 5565 5567 5568 5570 5571 5573 5574 5575 5576 5577
5546 5545 5544 5542 5541 5540 5539 5538 5537 5536 5535 5534 5533 5532 5532 5532 5532 5533 5533 5534 5536 5537 5538 5539 5540 5542 5543 5545 5546 5548 5549 5551 5552 5554 5555 5557 5558 5560 5561 5562 5563 5565 5566
5537 5535 5534 5532 5531 5530 5529 5528 5527 5526 5525 5524 5523 5522 5522 5522 5522 5522 5523 5523 5525 5526 5527 5528 5530 5531 5532 5533 5535 5536 5538 5539 5541 5543 5544 5546 5547 5549 5550 5551 5551 5552 5553
5528 5526 5524 5522 5521 5520 5519 5518 5517 5516 5515 5513 5512 5512 5511 5511 5512 5512 5513 5513 5514 5515 5517 5518 5519 5520 5521 5523 5524 5525 5527 5528 5530 5532 5534 5535 5536 5537 5539 5540 5540 5541 5542
5519 5517 5515 5513 5511 5510 5509 5508 5507 5506 5505 5503 5502 5501 5501 5501 5502 5502 5503 5503 5505 5506 5507 5508 5509 5510 5511 5513 5514 5516 5517 5518 5520 5521 5523 5524 5526 5527 5528 5529 5530 5530 5531
5510 5508 5506 5503 5501 5500 5499 5497 5496 5495 5494 5493 5492 5492 5491 5492 5492 5493 5494 5494 5496 5497 5498 5499 5500 5501 5502 5503 5504 5506 5507 5509 5510 5512 5513 5514 5516 5517 5517 5518 5519 5519 5520
5501 5499 5496 5494 5492 5490 5489 5487 5486 5486 5485 5484 5483 5483 5483 5483 5484 5485 5485 5486 5487 5488 5490 5491 5491 5492 5494 5495 5496 5497 5498 5500 5501 5503 5504 5505 5506 5507 5507 5508 5508 5509 5509
5493 5490 5488 5485 5483 5481 5479 5478 5477 5476 5476 5475 5475 5475 5475 5475 5476 5477 5478 5479 5480 5481 5482 5483 5484 5485 5486 5487 5488 5489 5490 5491 5493 5494 5495 5496 5497 5498 5498 5499 5499 5499 5500
5485 5483 5480 5478 5475 5472 5471 5469 5468 5468 5467 5467 5467 5467 5468 5468 5469 5470 5470 5471 5472 5474 5475 5476 5477 5478 5479 5480 5481 5482 5482 5484 5485 5486 5487 5488 5489 5489 5490 5490 5490 5491 5491
5479 5476 5473 5471 5468 5465 5463 5462 5461 5460 5460 5460 5460 5461 5461 5462 5462 5463 5464 5465 5466 5467 5468 5470 5470 5471 5472 5473 5474 5474 5475 5476 5477 5478 5479 5480 5480 5481 5482 5482 5482 5482 5482
5472 5469 5467 5464 5461 5459 5457 5455 5454 5453 5453 5453 5454 5454 5454 5455 5456 5456 5457 5458 5459 5460 5462 5463 5464 5465 5466 5467 5467 5468 5469 5469 5470 5471 5471 5472 5473 5474 5474 5474 5475 5474 5474
5465 5463 5460 5458 5455 5453 5451 5450 5448 5448 5447 5447 5447 5447 5448 5449 5449 5450 5451 5451 5452 5453 5455 5456 5458 5459 5460 5461 5461 5462 5462 5463 5464 5464 5465 5466 5466 5467 5467 5468 5468 5467 5467
5458 5456 5454 5451 5449 5447 5446 5445 5444 5443 5442 5442 5441 5441 5442 5442 5443 5444 5444 5445 5446 5447 5449 5451 5452 5453 5454 5455 5456 5456 5457 5457 5458 5459 5459 5460 5461 5461 5461 5461 5461 5461 5461
5452 5449 5447 5445 5443 5442 5441 5439 5438 5438 5437 5437 5436 5436 5436 5436 5437 5438 5439 5439 5440 5442 5444 5445 5447 5448 5449 5450 5451 5451 5452 5452 5453 5453 5454 5454 5455 5455 5455 5455 5455 5455 5455
5446 5443 5441 5439 5437 5436 5435 5434 5433 5432 5432 5431 5431 5431 5431 5431 5432 5432 5433 5434 5435 5437 5439 5440 5442 5443 5444 5445 5445 5446 5446 5447 5447 5448 5449 5449 5450 5450 5450 5450 5450 5450 5450
5440 5437 5435 5433 5432 5431 5430 5429 5428 5427 5427 5426 5426 5426 5426 5426 5427 5428 5428 5430 5431 5433 5434 5435 5437 5438 5439 5440 5440 5441 5442 5442 5443 5443 5444 5444 5445 5445 5445 5446 5446 5446 5446
5434 5432 5430 5428 5426 5425 5425 5424 5423 5422 5421 5421 5421 5421 5421 5422 5423 5423 5424 5425 5427 5428 5430 5431 5432 5433 5434 5435 5436 5436 5437 5438 5438 5439 5439 5440 5440 5441 5441 5441 5442 5442 5443
5429 5427 5425 5423 5422 5421 5420 5419 5418 5418 5417 5417 5417 5417 5417 5418 5418 5419 5420 5421 5422 5424 5425 5427 5428 5429 5430 5431 5431 5432 5433 5434 5434 5435 5436 5436 5436 5437 5437 5438 5439 5439 5439
5425 5422 5420 5419 5418 5417 5416 5415 5414 5414 5413 5413 5413 5413 5413 5414 5415 5415 5416 5417 5419 5420 5421 5423 5424 5425 5426 5426 5427 5428 5429 5430 5431 5431 5432 5433 5433 5433 5434 5434 5435 5435 5436
5420 5418 5416 5415 5413 5412 5411 5411 5410 5410 5410 5409 5409 5410 5410 5410 5411 5412 5413 5414 5415 5416 5418 5419 5420 5421 5422 5423 5424 5424 5425 5426 5427 5428 5429 5429 5430 5430 5431 5431 5432 5432 5433
5417 5415 5413 5411 5410 5409 5408 5407 5406 5406 5406 5406 5406 5406 5407 5407 5408 5409 5410 5411 5412 5413 5414 5415 5416 5417 5418 5419 5420 5421 5422 5423 5424 5424 5425 5426 5426 5427 5427 5428 5429 5429 5430
5414 5411 5409 5408 5406 5405 5404 5404 5403 5403 5403 5403 5403 5404 5404 5405 5405 5406 5407 5408 5409 5410 5411 5412 5413 5414 5415 5415 5417 5418 5418 5419 5420 5421 5422 5423 5423 5424 5424 5425 5425 5426 5426